Погода в Плешаново

Россия / Оренбургская область     52°50′42″N   53°29′20″E
темп.,
°C
ветер,
м/с
пор.,
м/с
влажн.,
%
обл.,
%
осадки,
мм/ч
давл.,
гПа
погр.,
м
10 апреля, сб
сб1023:00+5вюв41086100 0.0 1023164
02:00+4вюв3688100 0.0 102494
05:00+4вюв4887100 0.0 1025112
08:00+3в31089100 0.0 1026182
11:00+9юв61376100 0.0 1026361
14:00+14юв71364100 0.0 1025627
17:00+17юв81560100 0.0 1025794
20:00+12юв81774100 0.0 1026456
11 апреля, вс
вс1123:00+9юв81982100 0.0 1028417
02:00+8юв81880100 0.0 1028391
05:00+6юв71673100 0.0 1030371
08:00+6юв7167162 0.0 1031387
11:00+11ююв7105433 0.0 1031506
14:00+16ююв79445 0.0 1031711
17:00+17ююв784211 0.0 1031835
20:00+13юв486197 0.0 1031140
12 апреля, пн
пн1223:00+10вюв337499 0.0 103330
02:00+8вюв358659 0.0 103479
05:00+6вюв22885 0.0 103427
08:00+7вюв24815 0.0 1035106
11:00+12вюв345252 0.0 1035400
14:00+16вюв334275 0.0 1034751
17:00+18вюв3336100 0.0 1033925
20:00+14в3345100 0.0 103329
13 апреля, вт
вт1323:00+11вюв224758 0.0 103413
02:00+8юв225299 0.0 103413
05:00+6вюв226440 0.0 103511
08:00+6вюв37666 0.0 1036148
11:00+12юв56365 0.0 1035508
14:00+16юв562524 0.0 1034839
17:00+18ююв45238 0.0 1032973
20:00+13юв22395 0.0 103214
14 апреля, ср
ср1423:00+10юв22465 0.0 103212
02:00+8юв22525 0.0 103210
05:00+6вюв22595 0.0 103210
08:00+7вюв22635 0.0 103130
11:00+13вюв34455 0.0 1030427
14:00+17вюв33315 0.0 1029877
17:00+19вюв23280 0.0 10271107
20:00+15в22420 0.0 102611